Location: Marysville Observatory
(48.1092°N, 122.1645°W)
Time: 03:43:18
(UTC-07:00)

Amateur Radio Satellites - All Passes

Search period start: 20 August 2014 03:13
Search period end: 21 August 2014 03:13
Location: Marysville Observatory, 48.1092°N, 122.1645°W

Satellite Date Start Highest point End Downlink Frequencies (MHz)
Time Altitude Azimuth
ITAMSAT 1 20 Aug 03:15:59 03:21:05 56° 101° (E) 03:26:09 435.822 SSB
Uribyol 2 20 Aug 03:29:01 03:34:13 76° 104° (ESE) 03:39:24 436.500 FM
AO-Echo 20 Aug 03:32:38 03:37:27 86° 104° (ESE) 03:42:09 ?
AO-27 20 Aug 03:41:48 03:47:00 88° 286° (WNW) 03:52:12 436.795 MHz FM
Oscar 16 20 Aug 03:43:34 03:48:26 42° 293° (WNW) 03:53:18 437.025 USB, Beacon 2401.1428
JAS-1B 20 Aug 03:46:17 03:54:17 76° 103° (ESE) 04:00:52 435.800 - 435.900 CW/SSB
Sapphire 20 Aug 03:53:21 03:58:27 39° 45° (NE) 04:03:32 437.095 MHz 1200 baud AX-25 AFSK
OPAL 20 Aug 04:01:18 04:06:13 59° 68° (ENE) 04:11:14 ?
TMSAT-1 20 Aug 04:02:12 04:07:22 51° 99° (E) 04:12:30 436.925 FM
Uosat F 20 Aug 04:14:02 04:16:37 14° 88° (E) 04:19:12 435.120 FM
AO-7 20 Aug 04:16:11 04:22:24 23° 90° (E) 04:28:33 29.400 - 29.500 MHz
PCSat 20 Aug 04:24:03 04:29:29 64° 52° (NE) 04:34:52 145.825 MHz
KITSAT 1 20 Aug 04:26:49 04:34:20 40° 324° (NW) 04:41:53 435.175 FM
Saudisat 1A 20 Aug 04:39:04 04:42:01 17° 333° (NNW) 04:44:58 436.775 MHz
Gurwin Techsat 1B 20 Aug 04:42:45 04:47:58 59° 290° (WNW) 04:53:10 435.225 FM
Oscar 19 20 Aug 04:51:37 04:54:17 14° 306° (NW) 04:56:57 437.125 CW, 437.150 USB
ITAMSAT 1 20 Aug 04:56:09 05:00:14 24° 300° (WNW) 05:04:19 435.822 SSB
Uribyol 2 20 Aug 05:09:37 05:13:07 19° 303° (WNW) 05:16:38 436.500 FM
AO-Echo 20 Aug 05:12:59 05:15:33 15° 304° (NW) 05:18:06 ?
AO-27 20 Aug 05:22:48 05:25:48 16° 305° (NW) 05:28:48 436.795 MHz FM
STRAND 1 20 Aug 05:27:53 05:31:10 18° 57° (ENE) 05:34:27 ?
Sapphire 20 Aug 05:36:51 05:41:57 42° 245° (WSW) 05:47:01 437.095 MHz 1200 baud AX-25 AFSK
JAS-1B 20 Aug 05:37:31 05:44:00 28° 308° (NW) 05:49:39 435.800 - 435.900 CW/SSB
OPAL 20 Aug 05:41:46 05:45:30 21° 266° (W) 05:49:18 ?
TMSAT-1 20 Aug 05:42:39 05:47:02 27° 298° (WNW) 05:51:24 436.925 FM
Uosat F 20 Aug 05:51:03 05:56:05 84° 287° (WNW) 06:01:05 435.120 FM
AO-7 20 Aug 06:07:53 06:16:15 89° 290° (WNW) 06:24:33 29.400 - 29.500 MHz
PCSat 20 Aug 06:08:14 06:12:27 24° 252° (WSW) 06:16:40 145.825 MHz
SO-50 20 Aug 06:16:45 06:19:46 18° 112° (ESE) 06:22:50 436.795 FM
Gurwin Techsat 1B 20 Aug 06:25:27 06:26:53 11° 310° (NW) 06:28:18 435.225 FM
KITSAT 1 20 Aug 06:26:11 06:32:15 22° 352° (N) 06:38:19 435.175 FM
Hamsat 20 Aug 06:36:48 06:40:47 33° 96° (E) 06:44:44 145.90 MHz
JAS-2 20 Aug 06:38:52 06:43:27 30° 95° (E) 06:48:01 435.800 - 435.900 CW/SSB, 435.910 FM
STRAND 1 20 Aug 07:04:38 07:09:45 81° 256° (WSW) 07:14:54 ?
Uosat F 20 Aug 07:31:31 07:34:07 14° 306° (NW) 07:36:43 435.120 FM
SO-67 20 Aug 07:37:06 07:39:46 20° 93° (E) 07:42:26 435.3500 MHz FM
UOSAT-12 20 Aug 07:43:09 07:44:19 11° 107° (ESE) 07:45:30 437.025 FM, 437.400 FM
RS-15 20 Aug 07:53:44 07:57:12 12° 93° (E) 08:00:38 29.354 - 29.394 USB, Beacon 29.352 USB
SO-50 20 Aug 07:55:20 07:59:49 69° 311° (NW) 08:04:26 436.795 FM
AO-7 20 Aug 08:01:34 08:08:05 27° 312° (NW) 08:14:34 29.400 - 29.500 MHz
Saudisat 1A 20 Aug 08:02:38 08:04:59 14° 22° (NNE) 08:07:19 436.775 MHz
Hamsat 20 Aug 08:12:54 08:16:40 29° 294° (WNW) 08:20:25 145.90 MHz
JAS-2 20 Aug 08:23:55 08:28:44 39° 294° (WNW) 08:33:30 435.800 - 435.900 CW/SSB, 435.910 FM
KITSAT 1 20 Aug 08:24:02 08:30:44 27° 22° (NNE) 08:37:24 435.175 FM
STRAND 1 20 Aug 08:48:04 08:49:46 12° 274° (W) 08:51:28 ?
HO-68 20 Aug 08:56:26 09:01:23 20° 88° (E) 09:06:19 435.675 MHz FM
SO-67 20 Aug 09:09:49 09:12:53 29° 291° (WNW) 09:15:54 435.3500 MHz FM
UOSAT-12 20 Aug 09:19:00 09:23:37 74° 126° (SE) 09:28:20 437.025 FM, 437.400 FM
SO-50 20 Aug 09:38:03 09:41:14 18° 333° (NNW) 09:44:28 436.795 FM
Saudisat 1A 20 Aug 09:41:23 09:45:39 45° 44° (NE) 09:49:54 436.775 MHz
RS-15 20 Aug 09:56:11 10:06:49 56° 116° (ESE) 10:17:18 29.354 - 29.394 USB, Beacon 29.352 USB
KITSAT 1 20 Aug 10:19:44 10:27:48 65° 48° (NE) 10:35:48 435.175 FM
UKube-1 20 Aug 10:42:42 10:47:04 74° 103° (ESE) 10:51:23 145.840 MHz, 145.915 MHz
HO-68 20 Aug 10:42:50 10:50:02 89° 288° (WNW) 10:57:12 435.675 MHz FM
FUNcube-1 20 Aug 10:55:16 10:59:03 28° 95° (E) 11:02:53 145.950 - 145.970 MHz USB
UOSAT-12 20 Aug 11:00:24 11:04:16 25° 327° (NNW) 11:08:11 437.025 FM, 437.400 FM
Oscar 11 20 Aug 11:01:01 11:05:24 74° 103° (ESE) 11:09:46 145.825 FM, Beacon 2401.500 USB
Saudisat 1A 20 Aug 11:21:18 11:25:05 28° 244° (WSW) 11:28:49 436.775 MHz
SO-50 20 Aug 11:22:48 11:23:42 10° 358° (N) 11:24:36 436.795 FM
Oscar 16 20 Aug 11:49:56 11:51:28 11° 51° (NE) 11:53:01 437.025 USB, Beacon 2401.1428
RS-15 20 Aug 12:08:29 12:19:16 57° 321° (NW) 12:30:03 29.354 - 29.394 USB, Beacon 29.352 USB
KITSAT 1 20 Aug 12:15:37 12:22:48 37° 250° (WSW) 12:29:57 435.175 FM
UKube-1 20 Aug 12:20:17 12:22:44 15° 302° (WNW) 12:25:10 145.840 MHz, 145.915 MHz
FUNcube-1 20 Aug 12:31:31 12:35:30 35° 292° (WNW) 12:39:33 145.950 - 145.970 MHz USB
HO-68 20 Aug 12:31:34 12:36:53 23° 309° (NW) 12:42:12 435.675 MHz FM
Oscar 11 20 Aug 12:38:35 12:41:03 15° 301° (WNW) 12:43:30 145.825 FM, Beacon 2401.500 USB
JAS-1B 20 Aug 12:43:41 12:51:31 29° 52° (NE) 12:58:51 435.800 - 435.900 CW/SSB
UOSAT-12 20 Aug 12:44:29 12:46:05 12° 351° (N) 12:47:42 437.025 FM, 437.400 FM
Oscar 19 20 Aug 12:52:33 12:57:07 33° 64° (ENE) 13:01:43 437.125 CW, 437.150 USB
ITAMSAT 1 20 Aug 13:00:10 13:03:52 20° 58° (ENE) 13:07:35 435.822 SSB
SO-50 20 Aug 13:03:22 13:06:15 16° 23° (NNE) 13:09:11 436.795 FM
AO-Echo 20 Aug 13:11:25 13:15:33 25° 62° (ENE) 13:19:36 ?
Uribyol 2 20 Aug 13:12:28 13:16:41 26° 61° (ENE) 13:20:54 436.500 FM
Oscar 16 20 Aug 13:24:46 13:29:50 62° 71° (ENE) 13:34:57 437.025 USB, Beacon 2401.1428
AO-27 20 Aug 13:25:04 13:29:36 32° 63° (ENE) 13:34:08 436.795 MHz FM
AO-7 20 Aug 13:31:45 13:35:42 14° 34° (NE) 13:39:38 29.400 - 29.500 MHz
TMSAT-1 20 Aug 13:48:59 13:52:36 19° 57° (ENE) 13:56:13 436.925 FM
RS-15 20 Aug 14:24:51 14:34:29 34° 354° (N) 14:44:14 29.354 - 29.394 USB, Beacon 29.352 USB
UOSAT-12 20 Aug 14:26:07 14:28:20 13° 16° (NNE) 14:30:32 437.025 FM, 437.400 FM
Gurwin Techsat 1B 20 Aug 14:27:53 14:32:57 48° 68° (ENE) 14:38:03 435.225 FM
JAS-1B 20 Aug 14:30:59 14:40:57 85° 72° (ENE) 14:50:18 435.800 - 435.900 CW/SSB
Oscar 19 20 Aug 14:31:36 14:36:23 39° 263° (W) 14:41:14 437.125 CW, 437.150 USB
ITAMSAT 1 20 Aug 14:37:43 14:42:52 70° 257° (WSW) 14:48:04 435.822 SSB
SO-50 20 Aug 14:43:16 14:47:54 50° 45° (NE) 14:52:36 436.795 FM
AO-Echo 20 Aug 14:49:00 14:54:03 52° 260° (W) 14:58:59 ?
Uribyol 2 20 Aug 14:50:52 14:55:53 51° 260° (W) 15:00:56 436.500 FM
AO-27 20 Aug 15:04:07 15:09:00 41° 262° (W) 15:13:55 436.795 MHz FM
Oscar 16 20 Aug 15:05:54 15:09:38 20° 269° (W) 15:13:23 437.025 USB, Beacon 2401.1428
AO-7 20 Aug 15:18:40 15:26:26 45° 58° (ENE) 15:34:11 29.400 - 29.500 MHz
MaSat-1 20 Aug 15:22:32 15:26:01 20° 103° (ESE) 15:29:42 437.345 MHz
TMSAT-1 20 Aug 15:26:39 15:31:56 77° 256° (WSW) 15:37:16 436.925 FM
Uosat F 20 Aug 15:30:06 15:34:25 30° 63° (ENE) 15:38:44 435.120 FM
ISS 20 Aug 15:35:30 15:38:39 40° 147° (SSE) 15:41:48 145.800 FM
UOSAT-12 20 Aug 16:05:35 16:09:54 33° 39° (NE) 16:14:11 437.025 FM, 437.400 FM
Gurwin Techsat 1B 20 Aug 16:08:41 16:13:09 27° 267° (W) 16:17:39 435.225 FM
OPAL 20 Aug 16:10:10 16:11:35 11° 88° (E) 16:13:00 ?
JAS-1B 20 Aug 16:24:05 16:32:15 29° 272° (W) 16:40:08 435.800 - 435.900 CW/SSB
SO-50 20 Aug 16:24:12 16:28:17 29° 244° (WSW) 16:32:25 436.795 FM
RS-15 20 Aug 16:40:01 16:50:21 43° 27° (NNE) 17:00:56 29.354 - 29.394 USB, Beacon 29.352 USB
JAS-2 20 Aug 16:55:03 17:00:09 25° 61° (ENE) 17:04:49 435.800 - 435.900 CW/SSB, 435.910 FM
MaSat-1 20 Aug 16:57:47 17:02:37 67° 303° (WNW) 17:07:49 437.345 MHz
Uosat F 20 Aug 17:08:19 17:13:04 42° 262° (W) 17:17:50 435.120 FM
AO-7 20 Aug 17:11:03 17:19:08 52° 259° (WSW) 17:27:15 29.400 - 29.500 MHz
TMSAT-1 20 Aug 17:11:07 17:12:45 11° 275° (W) 17:14:24 436.925 FM
ISS 20 Aug 17:12:03 17:15:20 56° 346° (NNW) 17:18:38 145.800 FM
Hamsat 20 Aug 17:33:33 17:37:29 37° 69° (ENE) 17:41:29 145.90 MHz
UOSAT-12 20 Aug 17:45:41 17:50:15 48° 239° (WSW) 17:54:44 437.025 FM, 437.400 FM
OPAL 20 Aug 17:46:06 17:51:19 75° 106° (ESE) 17:56:32 ?
SO-67 20 Aug 18:14:39 18:16:29 14° 63° (ENE) 18:18:20 435.3500 MHz FM
MaSat-1 20 Aug 18:37:31 18:40:47 17° 325° (NW) 18:44:07 437.345 MHz
JAS-2 20 Aug 18:38:14 18:44:54 67° 257° (WSW) 18:50:48 435.800 - 435.900 CW/SSB, 435.910 FM
Sapphire 20 Aug 18:41:31 18:44:21 15° 104° (ESE) 18:47:11 437.095 MHz 1200 baud AX-25 AFSK
ISS 20 Aug 18:49:11 18:52:25 45° 6° (N) 18:55:39 145.800 FM
RS-15 20 Aug 18:52:53 19:03:56 84° 235° (SW) 19:15:24 29.354 - 29.394 USB, Beacon 29.352 USB
Hamsat 20 Aug 19:10:02 19:13:33 25° 267° (W) 19:17:08 145.90 MHz
PCSat 20 Aug 19:10:11 19:14:39 27° 110° (ESE) 19:19:09 145.825 MHz
STRAND 1 20 Aug 19:12:06 19:16:21 26° 94° (E) 19:20:35 ?
OPAL 20 Aug 19:25:59 19:29:40 20° 305° (NW) 19:33:22 ?
HO-68 20 Aug 19:29:21 19:34:51 25° 52° (NE) 19:40:22 435.675 MHz FM
SO-67 20 Aug 19:45:48 19:49:11 49° 261° (W) 19:52:35 435.3500 MHz FM
UKube-1 20 Aug 20:08:01 20:10:16 14° 57° (ENE) 20:12:31 145.840 MHz, 145.915 MHz
Oscar 10/S400 20 Aug 20:16:35 20:35:11 41° 153° (SSE) 21:39:21 145.825 - 145.975 CW/USB, Beacon 145.810 USB
Sapphire 20 Aug 20:21:32 20:26:57 85° 123° (ESE) 20:32:24 437.095 MHz 1200 baud AX-25 AFSK
ISS 20 Aug 20:25:59 20:29:19 76° 206° (SSW) 20:32:39 145.800 FM
Oscar 11 20 Aug 20:26:22 20:28:09 12° 57° (ENE) 20:29:56 145.825 FM, Beacon 2401.500 USB
JAS-2 20 Aug 20:28:55 20:30:53 11° 275° (W) 20:32:47 435.800 - 435.900 CW/SSB, 435.910 FM
STRAND 1 20 Aug 20:50:54 20:55:46 47° 292° (WNW) 21:00:37 ?
PCSat 20 Aug 20:52:25 20:57:45 57° 309° (NW) 21:03:07 145.825 MHz
RS-15 20 Aug 21:06:29 21:14:42 25° 258° (WSW) 21:23:10 29.354 - 29.394 USB, Beacon 29.352 USB
HO-68 20 Aug 21:14:38 21:21:48 85° 253° (WSW) 21:29:00 435.675 MHz FM
UKube-1 20 Aug 21:41:32 21:45:53 80° 256° (WSW) 21:50:16 145.840 MHz, 145.915 MHz
FUNcube-1 20 Aug 21:55:27 21:59:11 33° 67° (ENE) 22:02:57 145.950 - 145.970 MHz USB
Oscar 11 20 Aug 21:59:20 22:03:40 90° 75° (ENE) 22:08:03 145.825 FM, Beacon 2401.500 USB
ISS 20 Aug 22:03:33 22:05:37 15° 223° (SW) 22:07:40 145.800 FM
Sapphire 20 Aug 22:06:43 22:11:04 24° 324° (NW) 22:15:26 437.095 MHz 1200 baud AX-25 AFSK
PCSat 20 Aug 22:38:51 22:42:22 17° 332° (NNW) 22:45:54 145.825 MHz
HO-68 20 Aug 23:05:56 23:10:33 18° 273° (W) 23:15:11 435.675 MHz FM
FUNcube-1 20 Aug 23:32:09 23:35:39 26° 266° (W) 23:39:11 145.950 - 145.970 MHz USB
MaSat-1 20 Aug 23:35:55 23:39:25 18° 37° (NE) 23:42:43 437.345 MHz
Oscar 11 20 Aug 23:39:48 23:40:31 10° 274° (W) 23:41:14 145.825 FM, Beacon 2401.500 USB
Sapphire 20 Aug 23:55:16 23:56:35 11° 350° (N) 23:57:54 437.095 MHz 1200 baud AX-25 AFSK
KITSAT 1 21 Aug 00:53:46 00:59:56 25° 104° (ESE) 01:06:05 435.175 FM
MaSat-1 21 Aug 01:12:23 01:17:26 81° 59° (ENE) 01:21:55 437.345 MHz
Saudisat 1A 21 Aug 01:30:43 01:34:37 31° 118° (ESE) 01:38:31 436.775 MHz
Oscar 16 21 Aug 01:33:57 01:37:17 17° 89° (E) 01:40:35 437.025 USB, Beacon 2401.1428
Sapphire 21 Aug 01:40:26 01:42:39 12° 17° (NNE) 01:44:52 437.095 MHz 1200 baud AX-25 AFSK
PCSat 21 Aug 02:10:49 02:14:07 16° 26° (NNE) 02:17:24 145.825 MHz
JAS-1B 21 Aug 02:16:06 02:21:25 20° 83° (E) 02:26:09 435.800 - 435.900 CW/SSB
Oscar 19 21 Aug 02:39:01 02:44:10 58° 101° (E) 02:49:17 437.125 CW, 437.150 USB
Gurwin Techsat 1B 21 Aug 02:41:52 02:44:40 14° 87° (E) 02:47:27 435.225 FM
KITSAT 1 21 Aug 02:46:16 02:54:23 87° 306° (NW) 03:02:33 435.175 FM
ITAMSAT 1 21 Aug 02:47:12 02:51:50 32° 96° (E) 02:56:26 435.822 SSB
MaSat-1 21 Aug 02:51:08 02:53:44 15° 261° (W) 02:56:11 437.345 MHz
AO-Echo 21 Aug 02:52:47 02:57:13 37° 97° (E) 03:01:34 ?
Uribyol 2 21 Aug 02:59:48 03:04:45 43° 98° (E) 03:09:40 436.500 FM
